Total_Precipitation_Accumulation
0.07 0.16 0.42 0.80 1.36 1.68 1.34 0.69 0.52 0.38 0.35 0.47 0.46 0.35 0.39 0.55 0.80 1.36 1.18 1.24 1.08 0.97 0.95 0.99 1.09 0.96 0.93 0.90 0.97 1.09 1.09 1.14 1.17 1.22 1.16 1.27 1.28 1.18 1.16 1.23 1.28 1.46 1.64 1.59 1.52 1.30 1.10 1.01 0.94
0.12 0.24 0.53 1.00 1.66 1.90 1.21 0.54 0.41 0.33 0.39 0.46 0.37 0.30 0.38 0.40 0.40 0.57 0.87 1.03 0.81 0.69 0.65 0.62 0.80 0.82 0.83 0.78 0.84 0.88 0.94 1.00 1.08 1.18 1.13 1.16 1.17 1.14 1.16 1.27 1.36 1.53 1.53 1.38 1.34 1.16 0.95 0.85 0.81
0.18 0.30 0.65 1.03 1.24 1.28 0.69 0.34 0.29 0.28 0.40 0.43 0.35 0.31 0.37 0.47 0.48 0.57 0.61 0.61 0.56 0.51 0.50 0.54 0.61 0.64 0.68 0.69 0.75 0.76 0.84 0.93 1.01 1.09 1.14 1.15 1.13 1.17 1.25 1.36 1.48 1.44 1.29 1.25 1.25 1.07 0.89 0.76 0.69
0.22 0.36 0.59 0.79 0.81 0.65 0.37 0.25 0.25 0.29 0.40 0.35 0.30 0.42 0.52 0.58 0.43 0.46 0.48 0.45 0.40 0.43 0.46 0.49 0.55 0.49 0.55 0.62 0.64 0.69 0.79 0.92 0.99 1.00 1.09 1.16 1.27 1.29 1.32 1.34 1.34 1.27 1.16 1.17 1.06 0.90 0.78 0.68 0.64
0.26 0.46 0.70 0.71 0.58 0.40 0.30 0.26 0.26 0.26 0.25 0.32 0.37 0.59 0.75 0.74 0.49 0.56 0.59 0.47 0.36 0.43 0.47 0.46 0.51 0.47 0.50 0.58 0.62 0.70 0.82 0.96 1.01 0.99 1.02 1.12 1.26 1.31 1.25 1.16 1.15 1.15 1.07 0.98 0.91 0.84 0.70 0.67 0.67
0.31 0.45 0.54 0.51 0.38 0.25 0.27 0.25 0.22 0.22 0.27 0.37 0.48 0.55 0.85 0.84 0.68 0.84 0.77 0.65 0.51 0.52 0.53 0.57 0.60 0.56 0.55 0.61 0.66 0.74 0.89 1.04 1.04 1.02 1.04 1.05 1.10 1.13 1.07 1.01 1.02 1.04 0.96 0.89 0.85 0.79 0.71 0.67 0.68
0.24 0.31 0.37 0.32 0.26 0.22 0.21 0.20 0.20 0.21 0.35 0.47 0.53 0.69 1.03 1.17 0.91 0.88 0.94 0.90 0.70 0.69 0.80 0.78 0.68 0.68 0.77 0.86 0.90 0.93 1.08 1.13 1.14 1.15 1.07 1.06 1.04 1.03 1.02 0.98 0.97 0.96 0.93 0.88 0.79 0.72 0.66 0.63 0.66
0.14 0.17 0.19 0.17 0.15 0.18 0.14 0.16 0.19 0.22 0.31 0.48 0.62 0.84 1.27 1.25 1.02 0.99 1.04 1.17 0.95 0.84 0.84 0.83 0.74 0.74 0.78 0.87 1.07 1.16 1.19 1.22 1.23 1.16 1.09 1.04 0.96 0.94 0.95 0.91 1.05 1.01 1.01 0.98 0.93 0.82 0.68 0.69 0.76
0.10 0.15 0.14 0.11 0.08 0.10 0.09 0.11 0.17 0.24 0.32 0.42 0.68 0.91 1.00 0.92 1.07 1.13 1.28 1.54 1.51 1.25 1.14 0.99 0.73 0.74 0.87 0.98 1.08 1.22 1.27 1.34 1.41 1.34 1.20 1.24 1.37 1.29 1.40 1.24 1.47 1.34 1.30 1.23 1.20 1.09 1.04 1.01 0.89
0.09 0.13 0.10 0.06 0.05 0.06 0.06 0.09 0.16 0.35 0.53 0.81 1.09 1.07 0.88 0.87 1.15 1.34 1.53 1.84 1.90 1.77 1.57 1.32 1.04 0.94 1.07 1.05 1.08 1.24 1.30 1.42 1.49 1.61 1.55 1.87 2.14 2.02 1.58 1.69 1.96 1.95 1.85 1.74 1.76 1.84 1.62 1.39 1.20
0.06 0.06 0.05 0.05 0.04 0.05 0.05 0.08 0.11 0.25 0.72 1.25 1.51 1.44 1.26 1.10 1.34 1.69 2.02 2.33 2.14 1.91 1.79 1.68 1.45 1.30 1.14 1.18 1.21 1.41 1.62 1.93 1.76 1.66 1.76 2.19 2.03 1.77 1.63 1.84 2.17 2.43 2.32 2.21 2.27 2.37 1.96 2.02 2.22
0.03 0.03 0.02 0.03 0.03 0.03 0.04 0.06 0.15 0.27 0.70 0.99 1.23 1.34 1.38 1.37 1.45 1.68 2.00 2.29 2.50 2.44 2.26 2.06 1.90 1.73 1.68 1.60 1.53 1.51 1.61 1.78 1.81 1.96 1.81 2.18 2.32 2.20 2.18 2.42 2.44 2.64 2.81 3.20 2.97 3.04 2.85 2.77 2.61
0.03 0.02 0.02 0.02 0.02 0.02 0.03 0.09 0.19 0.30 0.57 0.64 0.75 0.91 1.21 1.45 1.79 2.09 2.24 2.58 2.72 2.85 2.67 2.53 2.41 2.35 2.34 2.25 2.09 1.68 1.79 1.84 1.92 2.19 2.22 2.32 2.57 2.65 2.71 2.71 2.66 2.44 2.78 3.22 3.48 3.15 3.41 3.43 3.02
0.03 0.03 0.02 0.02 0.03 0.04 0.05 0.11 0.21 0.36 0.50 0.57 0.67 0.87 1.16 1.50 1.79 2.23 2.52 2.92 2.93 2.98 3.11 3.21 3.10 3.01 3.03 2.87 2.72 2.45 2.23 2.39 2.35 2.46 2.64 2.76 3.00 3.16 3.21 3.07 2.97 2.63 2.62 2.93 3.18 3.18 3.56 3.40 3.20
0.03 0.04 0.07 0.07 0.06 0.08 0.16 0.27 0.40 0.53 0.57 0.76 0.87 1.12 1.29 1.61 1.99 2.08 2.26 2.53 2.85 3.13 3.60 3.89 3.92 3.86 3.85 3.74 3.43 3.09 2.93 2.97 3.18 3.33 3.29 3.23 3.37 3.67 3.54 3.34 2.95 2.75 2.77 2.98 2.93 2.96 3.09 2.98 2.88
0.04 0.09 0.19 0.17 0.10 0.12 0.21 0.53 0.61 0.64 0.75 0.96 1.01 1.25 1.55 1.65 1.99 2.13 2.17 2.38 2.98 3.45 4.02 4.33 4.47 4.71 4.63 4.60 4.30 3.80 3.59 3.55 3.58 3.63 3.64 3.49 3.55 3.46 3.48 3.18 2.77 2.82 2.85 2.89 2.98 2.82 2.90 2.91 2.93
0.10 0.14 0.25 0.28 0.16 0.17 0.25 0.57 0.69 0.70 0.89 1.05 1.21 1.28 1.42 1.63 2.06 2.36 2.52 2.66 3.19 3.78 4.45 4.85 5.34 5.65 5.55 5.28 4.84 4.39 4.27 4.10 3.92 3.90 3.82 3.66 3.43 3.25 3.42 3.14 2.97 2.89 2.87 2.74 2.51 2.91 3.06 3.07 3.05
0.15 0.16 0.25 0.31 0.19 0.19 0.33 0.55 0.76 0.84 0.99 1.17 1.21 1.22 1.36 1.66 1.89 2.27 2.61 2.99 3.43 3.86 4.60 5.24 5.81 6.04 5.82 5.30 4.94 4.79 4.57 4.24 3.99 3.72 3.52 3.28 3.16 2.93 3.15 2.90 2.81 2.91 3.01 2.84 2.82 3.10 3.14 2.85 2.90
0.10 0.14 0.22 0.28 0.18 0.21 0.37 0.58 0.78 0.92 1.07 1.14 1.31 1.30 1.51 1.78 1.94 2.32 2.67 3.14 3.58 4.08 4.80 5.43 5.86 5.87 5.72 5.40 5.05 4.79 4.28 3.92 3.64 3.34 3.13 2.91 2.65 2.58 2.95 2.72 3.00 2.86 2.77 2.61 2.56 2.69 2.73 2.46 2.66
0.09 0.16 0.28 0.29 0.19 0.20 0.37 0.63 0.90 0.98 0.93 0.96 1.18 1.29 1.37 1.58 1.89 2.25 2.76 3.04 3.40 3.91 4.46 4.87 4.88 4.56 4.46 4.50 4.42 4.18 4.15 3.94 3.82 3.54 3.35 2.94 2.78 2.69 2.55 2.73 2.55 2.52 2.61 2.42 2.32 2.53 2.54 2.27 2.58
0.09 0.14 0.21 0.25 0.26 0.29 0.41 0.80 1.07 1.09 0.94 0.87 0.91 1.02 1.15 1.30 1.51 1.86 2.42 2.73 2.93 3.40 3.72 3.74 3.64 3.48 3.54 3.63 3.62 3.71 3.90 3.89 3.83 3.68 3.40 3.09 2.94 2.86 2.74 2.63 2.44 2.38 2.23 2.31 2.34 2.39 2.45 2.38 2.36
0.11 0.09 0.12 0.15 0.25 0.48 0.55 1.01 1.32 1.40 1.27 1.03 0.92 1.03 1.10 1.21 1.27 1.57 1.90 2.13 2.40 2.65 2.75 2.74 2.82 2.85 2.89 2.97 3.03 2.94 2.94 3.13 3.33 3.53 3.56 3.47 3.21 2.98 2.72 2.57 2.35 2.19 2.06 2.27 1.99 2.09 2.39 2.52 2.26
0.08 0.07 0.10 0.14 0.22 0.38 0.50 0.78 1.28 1.57 1.64 1.28 1.02 0.93 0.89 1.04 1.29 1.50 1.60 1.77 1.87 1.89 1.98 2.05 2.34 2.68 2.81 2.91 3.03 2.94 2.63 2.60 2.64 2.77 2.93 2.92 2.89 2.72 2.43 2.35 2.28 2.12 1.99 2.00 1.98 2.25 2.28 2.28 2.23
0.08 0.12 0.20 0.31 0.46 0.70 0.65 0.72 1.15 1.42 1.54 1.22 1.01 0.91 0.79 0.81 1.00 1.23 1.49 1.58 1.53 1.49 1.64 1.84 2.15 2.58 2.83 2.89 2.84 2.80 2.70 2.66 2.57 2.56 2.60 2.47 2.44 2.36 2.20 2.12 2.20 2.05 1.94 1.95 1.95 2.08 2.16 2.30 2.40
0.10 0.18 0.55 0.95 1.28 1.29 0.77 0.73 0.97 1.02 0.97 0.97 0.84 0.78 0.82 0.76 0.76 0.78 0.97 1.22 1.19 1.15 1.30 1.57 1.77 2.11 2.36 2.46 2.43 2.35 2.46 2.56 2.43 2.28 2.21 2.13 2.02 1.93 1.91 1.99 2.11 1.95 1.89 1.96 2.12 2.13 2.10 2.25 2.36
0.09 0.13 0.41 0.70 0.90 1.01 0.83 1.14 1.27 0.96 0.80 0.70 0.59 0.57 0.66 0.62 0.57 0.56 0.63 0.80 1.02 1.01 1.06 1.18 1.43 1.69 1.90 1.97 2.06 2.17 2.32 2.40 2.35 2.50 2.29 2.12 1.83 1.69 1.75 1.96 2.03 1.96 1.89 1.89 2.25 2.23 2.23 2.33 2.31
0.10 0.09 0.15 0.26 0.41 0.70 0.96 1.17 1.15 0.97 0.91 0.73 0.54 0.47 0.49 0.49 0.48 0.49 0.56 0.76 0.79 0.77 0.81 0.92 1.17 1.36 1.52 1.66 1.82 1.89 1.86 1.89 2.04 2.22 2.21 2.04 1.96 1.77 1.84 1.91 2.10 2.19 2.26 2.30 2.44 2.36 2.35 2.54 2.51
0.11 0.10 0.12 0.20 0.36 0.56 0.87 1.23 1.31 1.22 1.06 0.89 0.78 0.57 0.46 0.46 0.49 0.48 0.49 0.57 0.58 0.58 0.70 0.94 1.11 1.15 1.37 1.66 1.84 1.75 1.77 1.73 1.88 1.92 1.93 1.97 1.91 1.89 1.93 1.94 2.02 2.15 2.27 2.33 2.49 2.48 2.52 2.69 2.71
0.15 0.13 0.12 0.16 0.21 0.36 0.75 1.00 0.94 0.97 0.91 0.88 0.77 0.64 0.55 0.49 0.48 0.49 0.49 0.49 0.58 0.52 0.62 0.79 0.93 1.07 1.36 1.66 1.89 1.91 1.80 1.81 1.87 1.78 1.74 1.86 1.89 1.87 1.92 1.93 1.90 1.89 2.04 2.25 2.46 2.43 2.59 2.72 2.76
0.16 0.16 0.16 0.23 0.22 0.25 0.41 0.67 0.55 0.65 0.76 0.79 0.63 0.55 0.50 0.39 0.40 0.39 0.37 0.42 0.42 0.42 0.54 0.84 1.15 1.49 1.66 1.92 2.20 2.24 2.01 1.81 1.70 1.57 1.56 1.73 1.90 1.92 1.89 1.87 1.86 1.82 1.92 2.18 2.36 2.47 2.72 2.86 2.77